ONEWEB-0013 (45131 NORAD) Tracking and Keplerian Element Data

This shows tracking and keplerian element data for the satellite.

Feedback or suggestion? Click here.




ElementValue
Catalog45131
NameONEWEB-0013
Epoch Orbit3694
Epoch Day297.91667824
Epoch Year2020
RAAN101.1178
Inclination87.9669
Eccentricity0.0018658
Argument of Perigee200.5807
Mean Anonmoly222.0062
Mean Motion13.10343469
Decay Rate0.00028683
L11 45131U 20008A 20297.91667824 .00028683 00000-0 81844-1 0 9990
L22 45131 87.9669 101.1178 0018658 200.5807 222.0062 13.10343469 36940

Live tracking and technical data element details for ONEWEB-0013 (NORAD 45131). ONEWEB-0013 can be tracked NOW for your location showing map with azimuth and elevation plus other details from your city location.

Track the satellite on the map from your city or location and see movement details for azimuth, elevation, latitude, longitude, range, height, and movement on the map or in text.







IsCatalogInMostPopularTable: catalog: 45131, numindb: 51
Update: records affected: 1



GetName: 45131 ONEWEB-0013

Hit Count: updated at: Sat, 24 Oct 2020 23:24:43 GMT